Tracking 21472 objects as of 22-Sep-2020
HD Live streaming from Space Station
objects crossing your sky now

JILIN-01 GAOFEN 3G

Track JILIN-01 GAOFEN 3G now!
10-day predictions


NORAD ID: 46459
Int'l Code: 2020-065F
Perigee: 536.5 km
Apogee: 553.5 km
Inclination: 97.5 °
Period: 95.4 minutes
Semi major axis: 6915 km
RCS: Unknown
Launch date: September 15, 2020
Source: People's Republic of China (PRC)
Launch site: Yellow Sea Launch Area, China (YSLA)
aabbcc
Your satellite tracking list
Your tracking list is empty




NASA's NSSDC Master Catalog

Two Line Element Set (TLE):
1 46459U 20065F   20266.54378873 -.00000128  00000-0 -40044-5 0  9992
2 46459  97.5436 322.0871 0012309 268.0999 197.8132 15.09466530  1130
Source of the keplerian elements: AFSPC